CAPE
1156 1212 1180 587 478 670 1283 2080 2961 3545 3366 3038 2636 2208 1376 1459 1430 1955 2024 1958 1728 1492 1448 1650 1688 1316 957 967 1140 1012 791 474 493 404 482 420 428 444 495 504 436 510 481 512 548 516 490 522 526 472 480 472 502 506 1104 1789 1802 1211 730 931 942 870 1317
1242 953 1306 910 472 984 1624 2850 3452 3270 3006 2963 2236 1808 1390 1514 1764 1984 1908 1848 1528 1665 1872 1849 1504 1179 942 962 955 818 563 389 342 359 370 410 471 448 358 330 353 476 611 652 620 573 596 552 518 562 568 506 428 452 687 842 946 1217 609 559 608 764 961
1392 765 1475 1582 572 667 1500 2936 3172 2849 2821 2621 2078 1606 1426 1828 1946 2063 1902 1557 1509 1842 2055 1668 1318 1136 1012 952 912 802 668 520 301 343 394 342 304 266 241 210 260 410 458 518 534 539 433 505 577 672 581 546 474 528 752 774 754 732 798 868 879 710 995
1346 927 1544 1928 2265 1354 1333 2242 2829 2390 2484 2314 2044 1763 1743 2176 2126 2179 1793 1518 1389 1699 1953 1552 1332 1078 1132 1104 1015 886 683 572 547 414 350 317 312 382 239 231 347 484 542 434 426 413 541 578 637 560 544 570 568 735 820 766 912 1019 1172 1238 1260 940 1002
1809 1621 1515 1886 2243 2081 2079 2740 2759 1978 1936 1882 1767 1833 2066 2636 2485 1942 1529 1466 1381 1614 1714 1509 1126 1028 1160 1150 1059 938 733 653 568 562 477 413 391 294 287 280 318 370 418 398 385 386 443 536 491 456 460 482 449 478 232 363 500 611 599 924 1042 933 766
1600 1995 1806 1600 2080 1392 809 2198 2330 1550 1423 1238 1409 1730 2137 2409 1858 1236 1260 1449 1490 1432 1498 1326 1208 1234 1249 1384 1154 824 801 632 525 501 480 445 399 338 264 252 310 388 318 361 292 244 260 338 429 486 539 462 269 292 248 340 401 388 562 787 1029 1132 1076
1713 2167 2061 1863 2340 2170 2384 2542 1886 1365 995 744 1188 1571 1898 1745 1144 650 772 1227 1150 1114 1218 1230 1283 1326 1358 1223 1204 1196 1033 745 617 610 654 572 488 464 363 378 330 340 373 368 362 292 230 232 323 479 537 596 716 636 702 721 769 858 1070 1118 1064 1173 1142
1684 2224 2370 2323 2426 1573 1704 1946 1587 1150 720 682 1317 1594 1517 1113 546 315 681 874 705 535 674 644 1166 1266 1382 1135 1007 1040 1055 902 679 530 567 553 466 308 315 292 228 280 434 331 304 189 155 224 259 286 526 696 893 936 966 990 1034 847 810 852 1102 1249 898
1979 2632 2649 2574 2185 1442 990 1728 1523 1007 804 1018 1640 1760 1216 714 358 294 487 570 607 426 549 531 769 1305 1508 1318 1146 1032 812 552 476 518 430 380 361 180 144 107 49 28 94 204 192 198 173 182 247 400 594 820 1001 1044 1086 1121 1172 842 750 826 1070 1351 1151
2356 3077 3033 2353 1660 1499 1608 1745 1474 1289 1006 1464 1883 1837 1019 498 335 264 239 224 340 355 433 396 164 630 1429 1457 1153 846 630 470 535 436 342 182 176 103 26 0 3 25 13 54 16 24 115 197 277 346 408 630 1007 1088 1384 1383 1470 1515 954 797 1072 1297 1387
2737 3287 3297 2804 2382 2141 2368 2105 1440 1554 1498 1769 2026 1622 953 494 352 353 351 224 134 147 150 206 80 51 658 1121 1038 840 598 474 428 416 423 280 54 4 0 0 0 0 0 0 9 28 36 19 46 115 290 739 1060 1100 1215 1380 1247 956 925 1151 1278 1337 1286
3172 3435 3490 3234 3059 2592 2497 2355 1697 1662 1547 1866 1932 1414 1016 958 359 427 427 328 106 32 14 37 159 156 241 353 448 462 398 483 462 329 257 138 32 0 3 0 4 1 8 12 6 0 0 0 0 17 194 476 1134 1656 1606 1570 1522 1957 1929 1750 1318 1162 1237
3254 3705 3731 3500 3224 2870 2878 2588 1878 1784 1794 2054 1920 1454 1349 1243 492 486 445 378 6 11 14 83 163 388 335 238 50 145 214 278 400 442 210 139 128 131 72 50 29 29 12 0 0 0 0 0 6 11 96 316 828 932 974 1304 1236 1528 1849 1843 1798 1686 1575
3250 3794 4071 4011 3586 3091 2979 2866 2373 2196 2452 2548 2192 1924 1614 1350 555 578 552 310 158 79 60 217 522 656 492 382 170 142 155 212 236 310 255 181 222 252 221 159 197 242 181 87 29 0 0 0 4 20 88 268 314 446 776 946 1150 1482 1510 1574 1737 1618 1356
2970 3469 4071 3951 3689 3338 3076 2981 2766 3018 3003 2626 2342 1905 1614 1117 650 668 595 341 342 242 240 444 832 883 699 686 546 418 307 339 359 287 220 192 298 308 299 307 266 248 181 76 18 1 0 6 21 98 182 277 384 685 811 1230 1267 1374 1582 1640 1711 1210 722
2814 2988 3548 3682 3653 3456 3208 3159 3362 3332 3045 2478 2215 1868 1430 1028 916 853 721 292 459 572 413 850 1120 1227 887 660 634 617 560 604 516 372 349 338 324 373 350 302 309 214 125 60 7 13 46 135 173 154 141 232 392 738 947 1260 1258 1081 985 1184 1597 1161 893
2419 2631 2887 3523 3606 3493 3430 3568 3764 3568 2944 2378 2164 1854 1322 971 1248 1392 352 253 401 724 629 916 1483 1421 1224 893 649 614 635 654 624 590 516 521 472 456 457 458 430 311 166 65 46 123 168 195 149 106 168 332 532 783 914 908 1046 530 868 1028 1200 1116 1056
1269 2271 2503 3070 3457 3613 3720 3852 3849 3524 2925 2242 2217 1830 1494 1572 992 698 570 300 390 648 737 961 1390 1554 1392 1151 818 670 641 569 579 588 604 619 658 610 539 499 402 305 180 93 81 147 120 170 188 255 326 522 766 846 858 924 995 727 969 1109 1152 984 1113
928 1590 2347 2840 3233 3452 3572 3680 3732 3586 2927 2327 2045 1729 1776 1446 901 1130 899 650 708 679 820 1089 1270 1528 1606 1197 875 734 738 673 619 658 646 741 789 734 617 552 415 266 140 71 54 102 212 226 242 313 498 552 710 725 735 822 558 800 919 1020 1024 1025 872
1046 1615 2186 2444 2816 3119 3462 3543 3456 3270 2917 2306 2107 1857 1506 1170 1416 1657 1221 748 855 719 876 1397 1447 1520 1382 1263 982 792 792 700 724 730 794 858 838 765 722 625 493 259 104 55 86 186 246 222 211 216 238 301 454 488 550 634 736 652 769 904 1050 1057 908
1583 1837 2262 2475 2741 2883 3251 3325 3400 3169 2760 2265 1880 1643 1295 1427 1656 1637 1316 1088 1075 959 1172 1322 1622 1474 1459 1236 1050 899 750 724 812 866 894 982 940 884 816 735 507 263 147 98 111 220 419 276 183 180 192 184 197 320 403 643 387 503 670 822 920 999 807
1650 1830 2286 2398 2655 2908 3167 3132 3197 3052 2763 2244 1582 1299 1276 1481 1557 1364 1372 1284 1172 1182 1542 1688 1568 1440 1198 1011 1008 958 902 829 920 1030 1032 1078 1009 972 965 796 534 370 326 218 204 313 310 280 192 92 156 246 295 428 508 584 560 512 441 642 819 834 913
1287 1734 2140 2411 2564 2733 2996 2987 3046 2879 2631 2050 1644 1511 1318 1439 1413 1296 1252 1346 974 1167 1533 1739 1788 1506 1150 1049 894 950 962 930 984 1117 1192 1174 1172 1296 1147 833 570 374 320 279 290 380 317 242 144 174 178 437 466 388 655 783 770 472 489 583 713 608 1276
1141 1700 2289 2345 2613 2685 2956 2982 2935 2854 2472 2110 1826 1592 1375 1259 1497 1653 1500 1374 1162 1042 1524 1734 1597 1464 1254 1004 912 989 970 1014 1064 1097 1110 1138 1151 1155 1058 751 574 368 284 230 254 261 394 305 292 468 458 396 505 506 453 303 291 332 402 611 670 796 1368
1107 1838 2243 2380 2615 2963 3094 3134 3027 2914 2667 2274 2084 1872 1666 1485 1447 1686 1822 1447 962 1043 1456 1737 1516 1322 1238 1135 987 971 1003 1008 1090 1084 960 1048 1076 988 845 678 575 404 350 334 420 512 474 347 342 375 421 292 383 198 186 466 659 534 475 511 672 716 1485
1654 2030 2404 2460 2841 3371 3497 3446 3198 2900 2539 2415 2568 2423 2180 1962 1725 1419 1501 1664 1328 988 1159 1478 1504 1336 1239 1202 1061 1016 1092 1118 1170 1149 983 926 886 897 889 756 531 450 544 459 303 259 259 260 190 256 450 577 468 362 326 654 569 1306 954 493 537 20 604
2022 2195 2314 2219 2626 3128 3518 3419 3085 2787 2465 2717 2870 2749 2479 2215 2461 2286 2070 2176 2192 1680 1206 1303 1522 1457 1432 1360 1091 1050 1216 1342 1367 1235 999 884 831 809 794 772 712 774 734 472 369 372 451 384 411 360 450 551 640 720 887 628 770 1346 652 541 216 0 61
1816 1968 1735 2024 2843 3040 3266 2671 3104 2809 2497 2768 3110 3008 2659 2980 3094 2984 2630 2407 2346 2226 1712 1538 1482 1440 1577 1676 1374 1216 1210 1315 1595 1255 1081 1037 1027 1032 955 843 776 707 598 472 542 510 457 570 598 580 565 591 737 865 827 975 832 1355 1032 794 653 544 28
1528 1252 1657 2613 2410 2553 1821 1972 2122 1633 1411 1516 1756 2478 2880 3046 3234 3204 2958 2728 2710 2544 2161 1846 1626 1612 1837 1853 1686 1723 1447 1406 1377 1185 1003 1039 1000 974 1060 1216 1285 1152 1050 964 783 632 578 707 731 683 730 857 822 668 662 1010 1842 1242 1064 926 831 690 210
1335 1357 1915 1237 965 1374 842 1625 1408 1038 807 587 888 1512 2527 2975 3081 3108 2960 2846 2679 2561 2425 2107 1843 1887 2085 2132 2204 2086 1614 1450 1354 1235 1196 1168 1157 1086 1133 1303 1482 1497 1394 1138 954 1028 809 696 778 886 759 627 416 778 576 1008 1645 653 696 821 403 0 0
1118 1284 983 473 720 901 954 1382 1776 1472 1664 2155 2589 2960 3109 3001 2744 2707 2714 2686 2577 2395 2359 2356 2138 2084 2383 2478 2375 2157 1748 1548 1458 1254 1282 1294 1272 1240 1324 1470 1635 1468 1464 1041 1078 800 934 825 842 857 739 570 512 617 599 599 903 1201 865 288 43 1 0
1349 1112 595 680 1452 1518 1238 928 1194 1742 2134 2869 2917 2852 2647 2472 2331 2274 2408 2436 2288 2172 2134 2310 2371 2306 2497 2546 2004 1834 1834 1608 1356 1254 1289 1398 1308 1126 1169 924 1358 1397 882 807 892 714 950 946 737 690 605 478 681 350 588 329 423 1106 815 332 152 71 13
1798 1388 1196 1576 2182 1677 1298 1148 971 1148 1202 1502 2086 2482 2323 2742 2696 2614 2483 2317 2066 2138 2428 2574 2694 2693 2698 2321 1770 1840 1590 1488 1376 1014 1436 1617 1282 621 708 1056 1150 1101 1032 818 728 536 423 707 496 577 414 905 444 388 500 594 587 818 296 14 2 2 0
1988 1961 2208 2246 1835 1784 1630 1495 1406 1585 1810 2102 2156 2179 2008 1520 1251 1144 1583 1474 1233 995 1970 2644 2671 2564 2508 2345 2165 1719 1519 1468 1209 1346 1294 1009 658 643 1081 1412 1276 1067 777 773 612 485 549 604 545 642 717 568 506 601 718 291 502 264 0 0 0 0 0
2346 2482 2233 1959 1812 1942 2347 1845 1831 1808 1392 1966 1815 1599 1460 1352 1136 560 377 259 904 1282 1224 1993 2389 2352 2231 2070 1790 1403 1172 1172 1575 1504 1191 865 708 1061 697 767 1569 1212 781 737 864 1042 1040 630 264 392 552 474 453 663 419 336 275 0 0 0 0 0 0
2384 2147 2072 1888 1908 1900 1560 1405 1278 1388 1328 1788 1538 1382 1452 1310 1177 1233 696 328 322 746 1109 1722 2084 2059 1672 1030 859 995 882 1129 978 988 948 966 870 584 376 0 114 1024 1097 645 484 445 0 0 332 117 151 171 346 173 110 27 0 0 0 0 0 0 0
1614 1268 1145 1032 1234 1312 1586 1398 1149 1472 1254 1614 1318 1342 1154 1170 940 1130 889 821 1131 1099 1388 1619 1594 1186 856 711 766 630 797 698 1447 496 1019 611 478 746 544 12 0 0 244 285 0 0 0 0 0 0 0 0 184 0 0 0 0 0 0 0 0 0 0
864 853 832 789 1284 1278 1436 1493 1383 1509 1492 1583 1163 1279 1158 873 882 1098 700 744 1026 1228 1257 1326 1432 1330 1096 725 588 1462 834 681 513 761 679 594 691 1022 914 470 162 0 0 0 0 0 0 0 0 0 0 0 0 0 0 0 0 0 0 0 0 0 0
Wind_Speed
23 26 31 30 27 26 23 25 30 34 35 35 34 35 33 32 32 32 30 31 31 31 31 31 31 31 31 31 32 31 31 30 31 30 29 28 29 29 29 29 27 27 27 28 29 30 32 33 34 35 35 36 36 38 39 41 41 39 37 34 34 34 33
23 23 29 32 32 30 26 27 31 35 37 37 36 37 34 34 33 33 32 32 32 31 32 32 32 32 31 31 31 31 30 31 32 32 30 30 30 30 31 30 29 28 29 30 30 32 33 34 35 36 36 36 36 37 39 40 40 38 36 34 34 35 34
24 22 26 31 35 34 28 27 31 34 38 39 38 38 37 37 35 35 33 33 33 32 33 33 33 32 32 32 32 31 31 32 32 33 31 31 30 30 31 31 30 30 30 30 32 33 35 35 37 37 37 37 37 37 38 39 40 38 37 35 34 34 34
25 24 27 29 32 37 30 25 30 35 38 39 40 40 40 40 37 35 34 34 34 33 34 33 33 33 34 34 33 32 32 33 34 33 32 32 32 33 32 32 32 31 32 33 34 34 36 37 37 38 38 39 38 38 38 39 39 39 37 35 34 34 34
23 23 26 28 30 33 29 25 29 34 37 38 38 39 40 40 38 36 35 34 34 34 34 34 33 34 34 34 34 33 32 33 34 34 34 33 33 33 33 33 32 32 32 33 34 36 37 38 39 39 40 40 40 41 40 40 40 40 38 36 34 34 35
21 22 25 27 28 31 27 23 29 34 36 37 38 38 40 41 38 37 37 36 35 35 34 34 34 35 35 36 34 33 33 33 34 35 34 35 35 34 34 33 33 32 32 34 35 36 37 38 39 40 40 41 41 40 41 41 41 40 39 36 35 34 35
19 21 23 26 29 29 27 25 30 33 35 36 37 37 38 39 38 37 38 38 37 37 36 35 35 36 36 35 35 34 33 33 35 35 35 36 36 35 34 34 34 34 34 35 35 36 38 39 40 40 42 42 42 41 42 43 42 42 40 37 35 35 34
18 21 23 26 29 29 26 27 32 35 36 36 37 37 38 39 38 38 39 39 38 37 37 35 37 36 37 37 35 34 34 34 35 36 37 36 36 35 35 35 35 36 37 36 36 37 38 40 41 42 42 41 42 42 43 43 43 41 40 36 35 34 34
20 21 24 27 29 31 27 25 32 35 37 37 38 37 37 38 38 39 39 39 40 38 39 37 38 38 38 38 37 35 34 34 35 37 37 37 36 36 37 36 nan nan nan 38 38 40 41 41 42 42 42 41 42 43 44 44 43 42 39 36 34 33 31
23 23 24 27 30 31 28 28 33 35 36 37 37 36 37 37 37 38 39 39 40 39 39 37 38 42 42 39 37 36 35 36 37 37 36 37 38 38 nan nan nan nan nan nan nan nan 41 43 44 44 43 42 42 44 44 43 41 40 38 36 34 32 30
25 25 25 29 31 31 33 33 35 36 36 37 38 38 38 38 38 39 39 39 39 40 42 42 nan nan 43 41 39 38 37 37 37 38 39 38 nan nan nan nan nan nan nan nan nan nan nan nan nan 46 44 43 43 43 43 40 39 38 36 36 34 31 29
25 25 26 29 31 34 36 35 36 38 39 38 39 40 40 39 39 39 39 37 37 nan nan nan 42 42 43 41 40 39 38 38 37 38 38 37 nan nan nan nan nan nan nan nan nan nan nan nan nan nan 44 43 43 43 39 37 38 38 35 33 31 29 28
26 26 25 27 30 32 34 36 37 38 40 40 40 41 40 40 40 39 38 36 nan nan nan nan 42 43 43 41 nan 40 38 38 39 39 39 40 40 41 nan nan nan nan nan nan nan nan nan nan nan nan nan 44 44 44 40 38 36 36 34 31 30 28 27
27 29 28 28 30 32 33 35 36 37 40 42 41 41 41 40 40 39 40 37 40 nan nan 44 45 46 44 42 41 40 39 38 39 41 41 41 41 42 41 40 39 39 39 nan nan nan nan nan nan nan nan 43 42 41 38 36 35 35 33 31 29 27 26
29 29 31 32 32 33 35 36 38 39 40 41 43 43 43 42 41 40 39 38 39 42 44 46 48 47 44 43 42 41 40 40 41 43 43 43 44 43 42 40 39 39 40 nan nan nan nan nan nan nan 42 42 42 40 38 37 35 35 33 30 27 26 23
29 30 32 32 33 35 36 38 40 40 41 43 44 44 44 43 41 41 39 37 39 42 45 47 48 46 44 43 42 42 42 43 44 44 44 44 44 43 42 40 39 39 39 nan nan nan nan 42 42 42 43 41 40 38 36 35 35 38 31 29 27 23 23
28 29 32 33 34 35 38 40 41 41 42 44 45 46 45 43 44 40 38 41 43 45 45 47 47 45 44 43 42 42 43 44 45 45 45 45 45 44 43 41 40 40 40 nan nan 41 42 43 42 41 41 39 37 36 34 33 36 43 37 34 30 27 22
26 28 30 33 35 36 38 39 40 41 42 45 47 47 46 46 44 41 40 43 45 45 46 46 47 45 44 43 43 43 44 45 46 46 45 46 46 45 44 42 41 40 41 nan nan 42 42 41 41 40 40 39 37 34 31 29 39 42 37 34 33 30 25
24 27 29 32 33 34 35 36 38 39 41 45 45 46 46 45 43 43 42 43 44 44 46 47 46 45 44 44 44 44 45 46 46 46 47 47 47 46 45 44 42 41 42 nan nan 41 41 41 41 41 39 37 34 32 29 27 37 39 37 33 32 31 27
24 27 29 31 32 33 34 35 35 37 41 43 44 45 45 44 42 42 44 44 44 44 45 46 46 45 45 44 44 45 47 48 47 47 47 47 47 46 45 43 42 41 42 nan nan 41 41 40 39 38 37 35 33 31 28 27 34 38 35 32 31 30 29
27 28 30 32 33 33 34 34 36 37 39 40 42 43 43 42 41 42 44 44 43 44 45 46 45 45 45 44 45 46 48 49 49 48 47 47 46 45 43 42 41 41 41 nan 40 40 40 40 38 37 35 32 30 29 28 27 37 37 34 32 31 30 29
28 29 30 30 33 33 34 34 35 37 37 38 40 40 40 40 41 41 43 42 42 44 45 46 46 45 45 45 46 48 49 49 49 48 46 45 44 43 42 41 41 41 42 41 40 40 40 39 37 nan 33 30 29 28 27 26 38 34 32 30 30 31 26
29 30 31 31 32 32 33 33 35 36 38 38 38 39 39 40 40 39 40 42 42 44 45 46 46 45 46 46 47 48 50 50 50 48 45 44 43 42 41 41 41 41 42 41 40 40 39 36 34 33 31 28 28 28 26 23 30 32 30 29 29 29 24
32 33 33 33 33 34 34 34 35 37 38 39 39 38 38 39 39 39 39 40 42 44 44 45 46 46 47 47 47 48 49 50 50 48 45 44 42 41 41 40 41 40 41 39 38 38 36 34 33 32 29 26 26 27 23 21 19 26 28 28 30 25 21
35 36 36 36 37 38 38 37 37 39 38 39 39 39 38 37 38 39 39 38 40 42 44 45 45 47 48 48 47 47 48 49 49 48 45 44 42 41 40 40 39 40 39 38 39 38 35 33 32 29 26 25 23 25 23 22 24 22 26 27 27 24 22
40 40 39 40 40 40 40 40 40 39 39 39 39 39 38 38 37 36 38 39 39 40 43 45 45 46 47 47 47 46 46 47 48 48 45 43 42 41 40 40 39 39 39 39 38 35 33 32 31 27 24 27 25 23 20 22 25 26 31 31 28 nan 21
42 41 42 43 43 44 42 41 41 40 41 40 40 39 38 39 38 38 39 39 40 40 42 45 46 46 46 47 47 47 47 47 47 47 46 43 41 40 40 41 39 38 38 36 36 35 34 32 29 26 23 23 23 24 23 21 24 35 34 32 29 nan nan
43 43 43 45 47 44 44 43 43 42 42 42 41 40 40 40 39 39 40 40 39 40 41 43 44 45 46 46 47 47 47 48 49 47 46 44 42 41 40 39 38 37 36 35 34 35 35 32 29 25 23 22 25 24 22 26 28 32 33 32 29 26 nan
44 44 46 46 44 43 44 43 44 43 42 41 40 41 40 40 40 40 41 40 39 39 40 42 43 45 47 47 47 47 46 47 48 48 47 44 42 40 39 39 38 38 36 34 33 33 35 34 30 25 23 24 23 22 23 26 29 27 31 31 26 25 22
44 45 46 43 41 40 42 44 42 42 40 39 40 41 41 40 40 40 39 37 38 38 39 41 43 45 46 46 46 45 44 45 47 47 45 43 41 40 38 38 38 37 37 35 33 35 36 35 32 28 25 22 21 22 25 29 29 27 29 26 26 nan nan
44 45 45 43 41 41 43 44 44 42 42 42 43 44 42 41 39 38 37 37 37 37 38 41 43 44 45 45 44 42 42 45 46 45 44 42 40 37 37 37 38 38 38 34 29 32 37 36 33 28 25 23 23 23 23 25 31 30 28 25 nan nan nan
44 44 44 45 45 45 43 44 43 43 43 44 43 41 40 38 38 37 37 37 37 38 39 41 43 43 43 45 44 42 43 44 44 42 41 40 38 34 35 35 35 39 39 34 29 33 36 34 32 27 26 26 24 21 21 21 23 30 27 24 21 nan nan
45 44 44 45 44 44 43 43 42 43 42 41 40 38 39 41 41 41 41 40 38 40 42 43 44 43 43 45 44 45 45 42 41 40 41 40 36 33 33 36 35 38 39 33 26 31 37 35 30 30 28 27 23 21 21 21 22 28 27 nan nan nan nan
46 46 46 46 45 44 45 43 42 44 43 42 41 40 40 40 40 42 43 40 39 41 44 46 44 43 44 43 44 45 44 42 40 39 40 40 36 32 35 36 39 41 37 28 27 33 37 34 31 27 25 24 22 23 24 21 21 28 nan nan nan nan nan
46 47 46 46 46 45 45 44 45 45 43 43 43 44 44 44 44 41 39 41 43 44 45 45 45 44 43 43 46 43 43 42 43 41 38 36 34 40 42 39 37 40 40 36 35 36 36 35 33 26 26 26 23 23 24 24 24 nan nan nan nan nan nan
44 46 47 48 49 49 48 47 47 45 44 45 47 49 48 48 46 44 42 44 46 49 48 48 47 44 44 42 43 43 42 45 41 40 39 39 36 43 46 nan 44 37 35 40 40 43 nan nan 36 32 29 28 30 28 26 nan nan nan nan nan nan nan nan
45 45 46 48 50 49 48 49 47 46 47 50 52 51 50 49 47 49 49 51 51 50 49 48 45 43 40 39 38 38 37 38 43 37 36 36 41 44 44 nan nan nan 44 44 nan nan nan nan nan nan nan nan 31 nan nan nan nan nan nan nan nan nan nan
45 46 48 48 50 50 50 48 47 48 51 53 52 52 51 51 52 55 50 53 51 49 47 46 44 43 40 39 38 44 43 40 32 34 35 36 40 44 37 41 45 nan nan nan nan nan nan nan nan nan nan nan nan nan nan nan nan nan nan nan nan nan nan
Wind_Direction
314 311 307 306 304 305 315 318 315 311 309 309 311 313 314 312 311 312 316 319 322 321 322 325 325 325 326 324 324 326 327 325 323 322 319 317 316 317 318 316 314 312 312 312 311 312 313 315 317 319 321 323 326 324 323 320 317 314 309 306 304 301 299
313 310 309 310 309 309 317 318 313 308 307 308 308 312 312 312 310 312 315 317 320 321 322 324 325 324 324 322 321 323 324 324 323 322 320 319 320 319 319 317 314 313 312 312 312 312 314 316 317 317 320 322 323 323 321 318 315 311 308 305 300 298 295
309 317 315 312 312 312 315 317 312 306 306 305 307 309 310 310 311 313 314 316 318 320 320 323 324 324 322 321 320 322 322 323 322 323 323 320 316 316 317 317 315 313 309 308 311 313 314 315 315 317 319 321 322 322 321 318 314 311 309 306 302 297 294
317 324 320 315 311 307 311 318 315 306 304 305 307 309 309 310 310 310 312 315 317 318 320 320 321 322 322 322 321 321 321 321 322 321 320 319 318 317 317 317 316 313 311 308 308 310 312 314 316 318 319 321 323 321 320 317 312 309 307 304 301 295 292
313 318 317 316 315 307 312 319 314 306 306 307 307 308 308 308 309 309 311 313 315 316 317 318 319 320 320 321 319 318 317 318 319 319 319 317 316 318 319 319 316 313 310 310 311 312 313 315 316 318 320 322 323 323 321 317 312 309 307 304 301 295 289
305 312 313 314 312 311 315 328 320 313 310 311 310 311 308 309 310 312 311 312 312 313 313 316 318 319 320 320 319 317 315 316 317 318 318 319 319 320 320 318 317 314 313 310 310 311 312 316 317 319 322 323 322 322 320 317 313 308 307 304 301 294 288
301 309 310 312 311 308 314 327 321 314 312 311 310 309 308 309 312 311 309 310 312 312 313 316 317 317 318 319 319 317 315 316 317 318 318 320 321 322 322 320 319 318 314 312 314 315 316 317 319 321 324 324 323 321 319 317 313 310 307 305 300 295 289
301 307 311 313 311 307 313 327 320 314 311 308 309 310 311 309 310 310 310 308 310 311 312 314 314 315 317 318 316 316 315 316 316 316 317 318 320 322 323 321 321 322 320 319 317 317 317 318 320 323 324 324 323 321 320 317 314 311 308 305 300 297 291
301 308 310 310 307 308 317 326 317 311 310 310 310 309 310 308 309 308 308 308 307 310 311 313 315 316 317 317 316 317 316 315 316 316 318 320 321 325 325 325 nan nan nan 320 320 319 320 321 323 324 326 325 324 322 320 318 316 312 309 305 302 300 295
300 305 307 309 312 312 316 320 313 307 310 308 307 308 309 306 306 306 307 307 307 309 310 310 308 312 317 317 317 317 316 315 315 316 318 321 322 325 nan nan nan nan nan nan nan nan 322 324 325 325 326 326 325 324 321 319 317 314 309 307 306 304 300
294 302 305 310 311 312 315 318 314 309 310 308 309 308 306 305 305 305 306 306 307 307 309 309 nan nan 314 317 318 318 316 315 315 317 320 322 nan nan nan nan nan nan nan nan nan nan nan nan nan 324 325 326 325 323 322 321 318 316 312 310 308 306 301
291 297 304 311 312 313 317 315 311 309 311 309 309 308 305 304 305 304 304 304 302 nan nan nan 311 315 315 317 318 315 315 315 316 318 319 321 nan nan nan nan nan nan nan nan nan nan nan nan nan nan 324 325 324 320 319 320 319 315 311 309 307 305 301
292 297 300 308 310 310 309 308 313 311 309 308 307 305 303 303 304 303 300 302 nan nan nan nan 310 312 312 315 nan 312 313 314 316 318 320 322 324 324 nan nan nan nan nan nan nan nan nan nan nan nan nan 325 324 324 324 320 317 313 309 310 310 308 304
301 303 303 303 306 309 310 308 307 306 306 307 305 304 303 304 303 304 303 306 304 nan nan 307 311 312 313 314 314 312 314 315 316 319 321 323 324 324 324 321 319 319 320 nan nan nan nan nan nan nan nan 322 321 321 322 320 317 312 311 312 313 308 305
309 309 308 310 311 310 310 310 308 308 308 307 307 308 306 304 304 304 305 305 305 306 306 306 308 310 312 314 313 314 315 315 316 319 322 324 325 324 322 320 320 321 323 nan nan nan nan nan nan nan 323 324 324 323 323 322 319 313 310 312 311 307 306
310 310 309 310 310 311 311 310 309 311 311 309 309 308 305 304 306 303 303 307 306 304 304 305 307 309 312 314 315 315 316 316 318 320 322 323 323 321 321 321 321 321 322 nan nan nan nan 323 323 326 327 326 324 323 322 320 314 305 313 313 317 313 309
309 309 308 308 309 310 311 311 312 313 313 310 309 307 304 305 301 302 313 308 306 305 305 306 308 311 313 315 316 316 315 316 319 322 323 322 321 321 322 322 323 323 323 nan nan 325 325 325 325 325 325 325 324 323 320 317 317 322 329 330 327 321 319
302 303 303 306 307 308 310 311 312 314 314 310 308 307 306 305 307 310 309 307 306 308 308 308 309 313 315 316 316 315 316 318 321 322 322 321 321 321 322 322 323 323 324 nan nan 325 323 323 323 325 326 325 324 321 319 319 317 326 328 331 328 326 324
290 294 296 299 302 305 307 309 310 311 310 308 308 307 307 306 308 310 308 306 306 307 308 310 311 313 315 315 315 316 317 319 321 323 322 321 322 322 322 322 322 323 324 nan nan 322 322 324 326 326 325 325 323 321 320 322 322 327 329 331 331 331 331
290 291 293 296 298 301 302 303 304 308 310 309 308 307 306 307 308 306 305 305 306 308 307 309 311 313 314 315 316 318 320 321 322 323 322 322 322 322 321 321 322 323 323 nan nan 323 322 323 325 325 326 326 324 322 322 322 322 329 329 332 334 337 333
294 294 295 295 298 299 300 303 304 307 308 308 306 304 304 305 303 302 303 305 308 309 309 309 311 312 313 316 319 320 321 321 322 322 321 321 321 321 322 321 322 323 322 nan 321 321 321 321 324 327 327 325 321 319 317 317 317 327 330 333 338 339 336
297 298 298 297 298 298 299 302 303 305 306 303 303 303 303 302 301 303 305 308 310 309 309 309 311 313 315 319 321 321 320 320 320 320 320 321 320 321 322 321 322 322 321 321 322 321 322 325 326 nan 328 324 322 321 319 317 319 327 329 333 337 333 335
298 299 297 296 298 298 299 301 302 303 301 301 301 302 302 301 303 305 306 309 309 308 309 310 312 314 318 320 321 321 319 319 318 318 320 320 320 321 322 322 321 321 320 321 321 323 323 325 327 326 327 325 321 320 319 322 320 326 328 330 329 328 335
294 294 295 295 295 296 297 298 299 299 301 302 302 303 301 303 304 305 307 308 309 310 310 312 314 316 318 320 319 319 317 317 317 318 319 319 320 322 322 322 321 320 319 321 321 323 323 324 327 328 323 321 324 310 307 307 301 319 324 325 327 331 330
297 295 297 297 299 299 300 300 301 301 302 302 303 304 304 305 306 306 307 309 311 312 313 313 314 316 317 317 317 317 316 316 316 318 319 320 321 321 321 321 320 319 319 320 323 323 324 326 325 323 319 310 309 314 315 310 301 317 315 315 317 325 324
295 297 298 299 300 299 300 301 302 303 303 305 305 305 306 305 305 307 307 309 311 313 313 313 315 315 313 313 315 316 315 315 316 317 318 320 321 320 320 319 320 322 322 323 321 320 319 318 321 321 317 311 317 319 318 310 304 316 316 313 317 nan 317
297 299 300 302 300 300 300 301 302 303 305 303 302 303 303 303 304 306 307 307 309 311 311 311 312 312 311 313 315 317 316 315 316 317 319 321 320 320 320 320 321 321 320 321 321 320 319 320 323 321 318 312 314 316 311 307 318 313 310 303 304 nan nan
297 298 299 296 296 299 299 300 300 302 302 299 300 301 301 301 303 303 305 306 309 309 309 309 310 310 312 315 316 317 316 316 315 316 318 320 320 319 319 319 320 318 319 320 319 320 320 321 323 322 315 313 313 306 313 326 312 301 302 302 303 308 nan
298 300 298 297 299 297 299 297 299 301 301 300 300 298 298 301 302 302 303 305 307 306 306 308 310 311 313 315 316 315 315 315 316 316 316 318 318 319 319 318 319 321 319 319 319 319 323 325 325 323 318 312 311 312 311 291 293 287 299 304 304 313 318
299 298 298 301 298 296 297 295 298 299 300 299 298 298 298 298 299 299 300 303 301 304 306 309 312 313 314 314 315 315 315 315 315 317 316 316 316 317 318 317 316 316 317 318 320 320 321 324 323 320 315 309 303 308 298 301 301 298 295 304 310 nan nan
300 299 300 300 298 294 295 296 295 294 293 290 288 289 291 293 296 300 304 303 302 305 308 311 312 312 312 313 314 315 314 314 314 315 316 315 314 316 316 317 318 317 314 310 310 318 319 321 322 318 305 305 309 302 299 293 301 303 300 308 nan nan nan
296 298 298 293 289 291 292 292 294 293 292 291 291 292 292 294 297 301 303 302 303 305 308 309 310 311 311 310 311 314 315 315 315 315 315 314 311 312 313 315 315 314 311 309 312 315 316 317 313 312 306 305 303 297 284 286 285 291 296 298 285 nan nan
294 294 295 293 291 290 290 292 292 291 291 290 290 292 295 299 301 302 300 301 302 305 306 306 309 310 310 310 312 312 312 314 311 312 312 311 310 312 313 311 310 308 306 306 307 308 310 314 313 309 308 301 297 290 286 285 284 283 282 nan nan nan nan
294 292 292 290 289 288 288 288 288 285 282 281 282 286 288 291 297 301 302 300 300 302 305 307 308 309 309 309 307 307 309 310 316 314 309 309 310 310 305 299 298 299 300 305 309 310 308 308 307 299 291 294 297 290 285 283 284 280 nan nan nan nan nan
292 291 291 288 286 286 285 284 285 284 282 281 283 288 291 294 295 294 292 297 300 301 304 305 307 307 305 304 305 308 310 311 308 304 304 304 304 292 289 293 295 297 298 292 290 290 296 301 304 301 291 289 289 290 287 287 284 nan nan nan nan nan nan
288 288 287 285 285 285 285 286 287 285 280 281 285 290 293 293 293 292 294 295 298 301 302 302 303 305 306 308 309 309 310 308 308 306 302 301 301 295 291 nan 282 279 293 294 286 283 nan nan 291 285 281 282 282 278 282 nan nan nan nan nan nan nan nan
286 285 283 282 283 284 283 283 284 282 281 283 287 291 292 292 291 292 292 293 293 295 298 301 301 301 301 301 303 293 290 296 299 295 298 302 297 301 299 nan nan nan 270 276 nan nan nan nan nan nan nan nan 283 nan nan nan nan nan nan nan nan nan nan
283 281 280 281 282 283 284 285 284 284 284 286 289 290 290 290 291 291 291 292 293 294 296 298 299 299 299 298 294 292 299 301 300 294 291 292 295 297 300 298 293 nan nan nan nan nan nan nan nan nan nan nan nan nan nan nan nan nan nan nan nan nan nan